星链-4116 (STARLINK-4116 )

导读 | 星芒AI

STARLINK-4116 是 SpaceX Starlink 项目中的一颗低轨通信卫星,属于该系列的第 4116 号卫星。它由 SpaceX 研发并发射,旨在为全球用户提供高速互联网服务。该卫星运行在近地轨道,具备先进的通信技术和激光链路,以提升数据传输效率。作为 Starlink 卫星群的一部分,STARLINK-4116 支持全球范围内的宽带接入,特别是在网络基础设施薄弱的地区。其部署有助于实现 SpaceX 构建全球卫星互联网的愿景。

基本信息
目录编号:
53164
目录名称:
STARLINK-4116
国际标识:
2022-083AJ
轨道中心:
EARTH
卫星名称:
星链-4116
卫星全名:
星链-4116 (STARLINK-4116 )
卫星状态:
在轨 (已飞行1253 天)
发射日期:
2022-07-17 UTC
国别 :
美国 (US)
星等 :
--
轨道信息
数据来源 国际轨道数据 AOE轨道数据
星历时间 2025-12-21T05:00:58+0800
8小时前
查看轨道信息
2025-12-20T14:00:00+0800
23小时前
查看轨道信息
半长轴 6917.851km 6917.874km
偏心率 0.0001239 0.0001971
轨道倾角 53.217° 53.217°
近地点辐角 96.650° 89.065°
升交点赤经 157.928° 160.749°
平近点角 263.464° 110.618°
近地点 538.856km 538.373km
远地点 540.572km 541.101km
周期 95.437分钟 95.437分钟
每日圈数 15.088498 15.088421
详细信息
固有亮度:
5
最大亮度:
2.5
卫星平台:
Starlink v1.5
覆盖范围:
全球
运营商:
太空探索技术公司
运营商所在国:
美国
制造商(研发单位):
太空探索技术公司
制造商所在国:
美国
使用方式:
暂无
卫星简介
星链(Starlink)计划是由太空探索技术公司(SpaceX)提出的一个巨型低轨卫星互联网星座项目,计划在2019年至2024年间在太空搭建由约1.2万颗卫星组成的“星链”网络,其中1584颗将部署在地球上空550千米处的近地轨道,并从2020年开始工作。该卫星仍在工作。
2D轨道图
3D轨道图
轨道高度分析图
轨道倾角分析图
轨道综合分析图
查看轨道综合分析图